Regional Weather Roundup
Issued by NWS State College, PA

Home | Current Version | Previous Version | Text Only | Print | Product List | Glossary On
Versions: 1 2 3 4 5 6 7 8 9 10 11 12 13 14 15 16 17 18 19 20 21 22 23 24 25 26 27 28 29 30 31 32 33 34 35 36 37 38 39 40 41 42 43 44 45 46 47 48 49 50
000
ASUS41 KCTP 222310
RWRCTP

REGIONAL WEATHER ROUNDUP
NATIONAL WEATHER SERVICE STATE COLLEGE PA
700 PM EDT FRI SEP 22 2017

Note: "fair" indicates few or no clouds below 12,000 feet with no
significant weather and/or obstructions to visibility.

* = STATION THAT DOES NOT REPORT PRECIPITATION /E.G. RAIN...SNOW...ETC/
    THUNDER OR FOG.

PAZ002>004-007>009-013>016-020>023-029>032-230000-
WESTERN PENNSYLVANIA

CITY           SKY/WX    TMP DP  RH WIND       PRES   REMARKS
ERIE           PTCLDY    76  64  66 CALM      30.10S
MEADVILLE      CLEAR     75  64  68 N6        30.12S
FRANKLIN*      CLEAR     73  56  54 N3        30.13S
NEW CASTLE     FAIR      80  63  55 N3        30.10S
BEAVER COUNTY  CLEAR     79  59  50 N6        30.09S
BUTLER*        CLOUDY    74  61  63 CALM      30.10R
PITTSBURGH INT CLOUDY    83  53  35 NE6       30.08S
PITTSBURGH     PTCLDY    81  56  42 E3        30.08S
INDIANA*       CLEAR     75  59  57 CALM      30.11F
LATROBE        PTCLDY    75  64  69 CALM      30.09S
WASHINGTON CO* PTCLDY    72  63  73 CALM      30.09S
$$

PAZ004>006-010>012-017>019-024>028-033>037-041-042-045-046-049>053-230000-
CENTRAL PENNSYLVANIA

CITY           SKY/WX    TMP DP  RH WIND       PRES   REMARKS
BRADFORD       CLEAR     72  55  55 CALM      30.14S
DUBOIS         CLEAR     74  54  49 N7        30.11R
CLEARFIELD     CLEAR     76  57  51 N5        30.09S
JOHNSTOWN      CLEAR     73  54  51 NW6       30.12F
ALTOONA        CLEAR     73  57  57 N6        30.08S
STATE COLLEGE  PTCLDY    77  52  41 NW5       30.06S
WILLIAMSPORT   CLEAR     81  51  35 N5        30.01R
SELINSGROVE    CLEAR     66  64  93 CALM      30.02R
FT INDIANTOWN  MOCLDY    77  54  45 NW5       29.99R
CAPITAL CITY   CLEAR     77  58  51 W3        29.99F
HARRISBURG     CLOUDY    78  56  46 NW3       29.98F
YORK           MOCLDY    71  66  84 CALM      30.00F
$$

PAZ038>040-043-044-047-048-054-055-060>062-067>071-230000-
EASTERN PENNSYLVANIA

CITY           SKY/WX    TMP DP  RH WIND       PRES   REMARKS
SCRANTON       CLEAR     75  53  46 N3        30.03S
MOUNT POCONO   CLEAR     67  46  47 N6        30.06S
ALLENTOWN      CLEAR     75  53  46 NW5       29.98S
QUAKERTOWN*    CLEAR     72  63  73 CALM      29.99S
READING        CLOUDY    75  61  61 NW3       29.98S
LANCASTER      PTCLDY    75  64  68 NW6       29.99S
COATESVILLE    MOCLDY    75  55  50 NW7       30.00F
POTTSTOWN      PTCLDY    72  59  63 NW3       29.99S
BLUE BELL      PTCLDY    68  61  77 CALM      29.98S
DOYLESTOWN     CLEAR     75  56  51 N3        29.97R
WILLOW GROVE   NOT AVBL
NORTH PHILA    CLEAR     78  58  49 N7        29.96S
PHILADELPHIA   CLOUDY    79  56  45 N7        29.95S
$$



USA.gov is the U.S. government's official web portal to all federal, state and local government web resources and services.